{"data":{"norad_id":60066,"epoch":"2026-05-25T02:03:03.089088Z","epoch_age_seconds":67594,"freshness":"FRESH","line1":"1 60066U 24113H   26145.08545242 -.00001771  00000+0 -97770-5 0  9999","line2":"2 60066  53.1594 174.3421 0000763  70.7223 289.3878 15.69681891111569","mean_motion":15.69681891,"eccentricity":7.63e-5,"inclination_deg":53.1594,"raan_deg":174.3421,"arg_perigee_deg":70.7223,"mean_anomaly_deg":289.3878,"bstar":-9.777e-6,"rev_number":11156,"period_min":91.738332986859,"perigee_km":359.29308367697,"apogee_km":360.32129396019,"semimajor_km":6737.9441888186,"source":"CELESTRAK","updated_at":"2026-05-25T13:38:19.157984Z"}}